Wisconsin Rapids, WI

6:05 AM CDT on October 21, 2017 (GMT -0500)
Alexander Field South Wood County

Weather History for KISW - November, 2013

Change the Weather History Date:

Wednesday, November 13, 2013

  Actual Average Record
Temperature  
Mean Temperature 31 °F -  
Max Temperature 46 °F 40 °F 71 °F (1999)
Min Temperature 16 °F 24 °F 3 °F (1996)
Degree Days  
Heating Degree Days 34    
Moisture  
Dew Point 17 °F    
Average Humidity 56    
Maximum Humidity 81    
Minimum Humidity 40    
Precipitation  
Precipitation 0.00 in - - ()
Sea Level Pressure  
Sea Level Pressure 30.22 in    
Wind  
Wind Speed 10 mph (SW)    
Max Wind Speed 18 mph    
Max Gust Speed 31 mph    
Visibility 10 miles    
Events      
Averages and records for this station are not official NWS values.
T = Trace of Precipitation, MM = Missing Value Source: NWS Daily Summary

Daily Weather History Graph

Daily Weather History Graph

Search for Another Location

Airport or City:

Trip Planner

Search our weather history database for the weather conditions in past years. The results will help you decide how hot, cold, wet, or windy it might be!

Date:

Astronomy

Nov. 13, 2013 Rise Set
Actual Time 6:52 AM CST 4:33 PM CST
Civil Twilight 6:21 AM CST 5:05 PM CST
Nautical Twilight 5:46 AM CST 5:40 PM CST
Astronomical Twilight 5:12 AM CST 6:14 PM CST
Moon 2:28 PM CST (11/13) 2:37 AM CST (11/13)
Length of Visible Light 10h 43m
Length of Day
9h 40m
Waxing Gibbous, 85% of the Moon is Illuminated
Nov 13
Waxing Gibbous
Nov 17
Full
Nov 25
Last Quarter
Dec 2
New
Dec 9
First Quarter

Hourly Weather History & Observations

Time (CST) Temp. Windchill Dew Point Humidity Pressure Visibility Wind Dir Wind Speed Gust Speed Precip Events Conditions
12:54 AM 17.1 °F 8.7 °F 10.0 °F 74% 30.54 in 10.0 mi WSW 5.8 mph - N/A   Clear
1:54 AM 16.0 °F 7.4 °F 10.0 °F 77% 30.53 in 10.0 mi SW 5.8 mph - N/A   Clear
2:54 AM 17.1 °F 6.6 °F 10.9 °F 77% 30.50 in 10.0 mi SW 8.1 mph - N/A   Clear
3:54 AM 17.1 °F 7.6 °F 10.9 °F 77% 30.48 in 10.0 mi SW 6.9 mph - N/A   Clear
4:54 AM 17.1 °F 6.6 °F 12.0 °F 81% 30.46 in 10.0 mi SSW 8.1 mph - N/A   Clear
5:54 AM 19.0 °F 9.0 °F 12.0 °F 74% 30.42 in 10.0 mi SSW 8.1 mph - N/A   Clear
6:54 AM 19.9 °F 8.6 °F 10.9 °F 68% 30.39 in 10.0 mi SSW 10.4 mph - N/A   Clear
7:54 AM 23.0 °F 13.9 °F 12.0 °F 63% 30.36 in 10.0 mi South 8.1 mph - N/A   Clear
8:54 AM 28.0 °F 16.5 °F 12.9 °F 53% 30.33 in 10.0 mi SW 15.0 mph 28.8 mph N/A   Clear
9:54 AM 32.0 °F 21.6 °F 12.9 °F 45% 30.29 in 10.0 mi SW 15.0 mph 23.0 mph N/A   Clear
10:54 AM 37.0 °F 28.1 °F 16.0 °F 42% 30.26 in 10.0 mi SW 15.0 mph 23.0 mph N/A   Clear
11:54 AM 42.1 °F 33.6 °F 19.0 °F 40% 30.20 in 10.0 mi SW 18.4 mph 26.5 mph N/A   Clear
12:54 PM 45.0 °F 37.4 °F 21.9 °F 40% 30.14 in 10.0 mi SW 18.4 mph 26.5 mph N/A   Clear
1:54 PM 46.9 °F - 24.1 °F 41% 30.09 in 10.0 mi SW 16.1 mph 31.1 mph N/A   Clear
2:54 PM 46.0 °F 38.8 °F 25.0 °F 44% 30.06 in 10.0 mi SW 18.4 mph 31.1 mph N/A   Clear
3:54 PM 44.1 °F 36.8 °F 25.0 °F 47% 30.06 in 10.0 mi SW 16.1 mph 26.5 mph N/A   Clear
4:54 PM 41.0 °F 33.1 °F 24.1 °F 51% 30.04 in 10.0 mi SW 15.0 mph 24.2 mph N/A   Clear
5:54 PM 39.0 °F 31.4 °F 24.1 °F 55% 30.05 in 10.0 mi SW 12.7 mph 18.4 mph N/A   Clear
6:54 PM 37.0 °F 29.8 °F 23.0 °F 57% 30.04 in 10.0 mi SW 10.4 mph 19.6 mph N/A   Clear
7:54 PM 35.1 °F 29.3 °F 19.9 °F 54% 30.05 in 10.0 mi SW 6.9 mph - N/A   Clear
8:54 PM 36.0 °F 28.5 °F 17.1 °F 46% 30.03 in 10.0 mi SSW 10.4 mph - N/A   Clear
9:54 PM 36.0 °F 28.0 °F 16.0 °F 44% 30.01 in 10.0 mi SW 11.5 mph - N/A   Clear
10:54 PM 36.0 °F 28.5 °F 16.0 °F 44% 29.99 in 10.0 mi SW 10.4 mph - N/A   Clear
11:54 PM 36.0 °F 28.5 °F 17.1 °F 46% 29.98 in 10.0 mi SW 10.4 mph - N/A   Clear